Wind_Speed
75 83 94 99 100 102 105 106 106 106 113 117 119 112 103 103 107 103 103 109 110 113 114 110 103 100 100 96 93 91 84 81 77 71 72 73 75 78 78 74 77 76 75 78
74 77 82 86 95 104 106 106 107 108 113 116 116 115 108 107 105 108 109 110 105 102 101 100 98 99 97 94 90 89 88 81 78 81 80 80 83 75 70 75 74 78 77 76
72 77 81 84 87 93 100 105 109 110 114 116 116 117 110 111 114 115 113 114 111 105 101 101 98 95 93 91 89 85 84 79 78 77 78 81 76 72 75 74 75 76 75 63
62 67 72 78 86 93 92 98 101 108 114 116 121 113 112 108 109 114 116 119 114 111 110 106 105 102 98 94 88 83 80 79 76 83 84 79 73 73 76 75 75 69 64 63
65 68 72 75 80 88 90 97 100 102 103 112 114 120 108 112 111 111 111 113 118 121 118 114 110 106 103 95 89 86 86 85 78 77 80 77 78 77 77 73 69 70 69 70
65 70 72 75 79 86 89 96 98 101 104 107 99 111 103 112 115 113 114 114 115 116 122 119 118 116 112 107 100 95 93 87 83 81 77 78 74 71 70 67 65 68 70 74
66 73 79 76 79 85 89 91 94 97 100 101 103 113 95 100 107 114 119 114 117 115 115 112 109 109 112 106 101 96 93 89 88 87 81 76 75 72 70 68 72 73 76 75
68 74 81 79 81 83 85 83 85 90 97 98 99 104 95 96 102 106 107 113 118 118 117 114 108 104 102 100 94 91 91 89 89 84 78 76 74 76 76 76 82 76 79 72
67 71 82 81 82 78 81 76 79 86 82 88 93 94 90 94 94 100 101 102 102 105 112 112 107 104 101 100 96 87 87 86 89 91 91 90 89 86 83 81 81 81 75 73
56 51 69 61 64 65 63 67 68 73 75 78 81 80 80 84 85 88 92 91 95 100 98 92 96 101 99 97 95 89 84 83 82 81 82 82 79 77 75 76 74 72 72 73
47 47 55 50 51 53 49 55 58 61 63 65 66 64 63 70 72 74 80 84 88 86 86 79 78 74 83 90 92 88 85 79 75 76 75 73 72 67 66 66 66 67 67 65
45 41 41 42 38 36 38 45 47 48 53 54 52 55 53 53 59 60 67 74 72 74 69 72 68 61 71 70 75 79 80 73 74 73 68 66 64 62 63 62 62 59 57 56
36 32 30 32 27 28 28 31 35 37 40 43 41 45 40 49 47 48 55 56 60 61 57 47 53 38 56 55 57 58 61 64 65 66 65 58 54 53 53 53 52 51 49 46
29 25 24 23 22 23 24 28 35 36 37 37 34 34 38 37 39 43 43 41 45 40 41 52 52 21 21 27 42 38 42 48 53 55 58 56 51 48 46 46 47 46 44 48
22 19 17 13 13 17 19 27 33 32 33 33 30 29 30 32 35 39 36 36 38 42 46 16 18 23 22 18 24 29 30 34 41 47 52 51 50 45 42 43 46 46 44 42
18 15 13 7 5 10 17 23 23 26 28 28 30 27 25 29 33 38 34 36 44 57 42 45 46 39 33 29 36 37 29 26 37 41 42 43 43 43 46 45 41 38 36 34
14 12 13 10 7 8 12 19 14 17 21 25 24 26 21 25 24 23 34 42 58 63 58 59 55 48 17 23 32 31 32 30 33 34 35 39 42 41 36 33 32 31 30 27
12 11 9 8 10 11 9 12 12 13 13 13 15 17 18 20 31 39 46 54 56 65 65 69 61 46 23 28 38 45 43 35 32 34 37 34 31 27 26 28 27 26 24 25
13 12 9 8 8 10 10 10 12 9 11 11 13 15 27 37 40 46 55 58 55 70 70 64 49 45 51 34 33 43 41 36 31 34 29 25 23 23 24 21 20 21 22 23
14 11 9 6 5 7 10 8 8 10 20 19 18 26 36 42 44 47 55 63 75 83 78 70 66 43 15 39 39 38 34 37 36 25 24 20 20 19 17 17 18 20 21 20
13 14 13 7 6 2 8 7 10 15 25 36 39 44 47 46 47 60 67 70 75 78 88 72 57 44 28 38 41 37 38 37 29 25 18 19 18 16 14 16 19 21 19 16
14 15 14 10 6 1 3 6 12 21 36 47 49 52 51 59 64 69 75 76 78 77 76 69 56 42 30 40 38 40 38 35 24 18 17 17 12 11 14 16 18 15 12 11
13 12 13 9 5 5 8 11 23 36 46 51 58 59 64 70 72 83 85 84 76 74 68 60 42 37 33 38 36 38 33 25 20 19 16 10 7 10 14 13 9 10 10 8
12 10 8 6 6 8 12 17 34 45 50 57 68 74 73 77 83 84 83 79 74 64 53 44 45 42 26 25 21 20 23 23 23 17 11 4 7 11 8 10 15 13 11 9
10 6 7 5 7 11 18 26 39 42 46 62 77 81 85 92 86 83 79 72 68 57 43 37 33 25 27 24 16 18 21 25 16 14 6 6 5 7 12 20 15 15 13 12
6 5 5 6 11 15 24 32 38 45 56 69 87 94 101 89 83 82 82 74 62 58 50 43 48 35 29 23 18 20 21 20 13 9 4 4 7 7 14 20 19 15 15 16
Wind_Direction
244 245 246 245 244 243 244 243 242 242 243 244 245 246 243 243 245 248 251 252 254 255 257 256 254 253 256 257 258 258 261 264 267 267 267 268 271 276 279 280 286 288 293 298
249 246 247 247 248 246 245 245 244 242 243 244 245 244 242 241 242 245 243 247 249 252 256 258 257 255 254 255 254 257 260 263 273 271 269 269 271 277 274 280 287 293 293 296
252 252 251 250 249 249 249 248 245 244 245 246 245 245 242 241 242 243 244 246 248 250 251 253 255 258 256 253 253 252 257 260 266 263 263 267 272 268 276 281 286 291 292 297
256 254 254 254 252 251 249 250 248 248 246 247 247 245 244 243 243 243 244 246 246 246 246 246 249 252 253 254 254 255 257 259 260 260 265 270 266 267 274 280 284 289 291 298
257 256 255 254 253 253 251 251 250 248 246 247 247 247 241 245 244 245 244 245 246 246 244 245 247 248 249 252 257 260 262 264 263 264 269 270 271 275 278 280 283 286 292 298
263 263 258 255 254 254 252 252 251 251 250 249 249 250 244 246 244 243 243 243 244 245 245 245 247 248 247 250 251 255 257 261 263 263 265 270 273 273 278 281 285 288 293 296
263 263 263 259 259 258 255 253 253 254 253 251 249 249 247 244 244 244 244 244 243 243 244 244 246 248 251 250 253 254 254 254 257 259 261 263 267 271 276 279 283 288 292 294
263 265 265 263 261 260 262 259 259 255 254 254 251 251 249 245 244 243 245 243 241 242 242 244 244 245 248 250 249 250 252 253 252 252 253 257 261 270 274 275 281 288 288 289
266 267 264 266 266 267 264 261 257 257 257 254 251 251 251 246 244 245 244 244 245 245 245 245 244 244 245 248 249 247 250 252 254 256 259 262 266 270 273 276 282 283 284 287
275 270 271 269 268 264 261 261 258 258 255 255 253 250 249 248 242 242 242 243 245 244 244 243 244 244 245 247 249 249 248 248 252 255 258 261 264 268 272 276 278 280 282 284
285 279 275 272 266 263 258 255 254 254 256 256 256 255 250 247 243 238 240 238 239 242 245 246 244 245 244 243 246 248 248 247 250 253 256 260 264 269 272 274 275 277 279 282
292 289 281 276 272 265 256 253 255 253 251 251 249 250 244 241 239 234 233 234 235 238 237 239 240 243 241 241 245 247 250 249 248 250 256 261 264 266 268 271 274 275 277 282
299 297 289 282 274 266 260 255 255 256 254 254 249 245 241 235 231 228 229 226 227 226 227 231 232 234 244 241 243 248 250 251 249 250 252 257 261 265 265 268 271 275 277 281
306 300 292 285 283 268 251 243 245 242 242 242 241 238 233 227 220 218 216 213 220 216 203 207 211 217 220 223 238 242 250 252 249 247 248 252 257 257 262 265 265 268 273 279
309 306 297 298 285 270 254 249 247 245 243 239 228 225 223 216 209 204 201 194 193 182 185 167 173 169 194 199 236 238 244 256 248 243 245 247 253 255 254 254 259 266 274 279
313 313 309 312 277 252 248 246 250 249 244 238 228 222 207 206 198 199 186 175 170 167 119 113 131 130 139 138 204 247 260 243 242 242 243 241 244 244 247 256 263 268 270 272
329 340 347 343 321 250 238 245 246 235 240 233 223 206 199 199 188 173 162 163 164 160 115 124 122 118 104 180 202 244 255 243 237 233 232 233 238 245 252 256 261 262 265 271
333 357 7 346 313 290 252 247 246 220 213 232 225 205 177 168 164 157 153 161 169 155 125 127 122 121 132 200 228 236 244 236 231 230 230 234 241 246 250 253 259 263 264 268
348 357 10 2 325 294 253 234 236 219 161 179 177 149 139 141 155 154 157 159 146 145 147 140 120 126 167 201 217 229 229 235 233 232 234 236 241 241 247 255 255 259 265 278
347 350 13 1 334 325 264 229 201 172 152 143 132 126 133 144 148 146 141 138 140 142 139 138 124 121 178 179 200 216 226 238 239 229 229 235 233 239 243 249 263 270 279 274
347 0 359 4 10 334 237 208 175 167 148 135 135 132 142 139 139 137 134 133 141 145 143 136 123 128 198 206 209 224 231 242 236 228 228 228 227 241 254 265 277 281 273 255
349 352 360 10 25 74 212 204 158 148 148 147 143 139 142 138 138 132 130 137 143 146 146 147 133 130 205 220 216 221 233 234 231 217 215 211 226 254 277 289 281 268 237 207
342 358 3 9 35 110 159 175 138 150 156 153 143 139 138 134 132 130 134 139 129 134 136 143 155 165 193 194 205 219 226 224 213 209 191 201 256 295 296 277 244 182 154 163
344 359 16 16 72 117 153 156 149 158 160 150 138 134 132 129 129 129 133 128 124 124 124 141 150 155 198 200 208 214 204 201 198 187 186 254 292 302 270 178 164 162 156 141
342 359 28 49 103 139 150 154 156 160 157 154 139 132 131 130 129 128 129 126 119 110 117 136 150 197 233 233 226 208 197 204 194 183 204 259 295 286 202 179 183 183 164 154
352 35 71 110 131 150 152 152 150 153 161 153 133 132 132 132 130 128 125 122 122 120 123 140 175 206 233 229 216 197 198 205 186 181 227 274 299 270 216 203 207 199 171 207
Height
10585 10590 10594 10594 10601 10605 10609 10621 10632 10642 10629 10625 10639 10664 10695 10690 10691 10705 10713 10717 10723 10728 10735 10750 10764 10769 10774 10780 10786 10788 10794 10802 10809 10810 10812 10814 10817 10816 10815 10813 10812 10812 10811 10802
10568 10571 10571 10576 10578 10580 10584 10595 10604 10610 10601 10600 10616 10635 10662 10671 10677 10679 10687 10693 10704 10714 10717 10724 10736 10748 10757 10766 10774 10778 10787 10791 10793 10792 10798 10801 10804 10808 10801 10802 10801 10797 10796 10793
10551 10549 10551 10555 10557 10555 10560 10568 10574 10580 10576 10583 10594 10605 10636 10652 10655 10657 10666 10672 10685 10698 10706 10709 10713 10720 10731 10746 10757 10769 10777 10783 10780 10775 10781 10788 10797 10796 10791 10792 10793 10787 10783 10783
10530 10530 10532 10533 10534 10530 10542 10536 10545 10553 10557 10565 10556 10591 10606 10626 10633 10637 10646 10648 10663 10673 10681 10687 10692 10698 10706 10719 10736 10751 10762 10769 10770 10761 10767 10777 10781 10783 10780 10785 10787 10775 10771 10770
10511 10510 10510 10512 10510 10505 10517 10509 10516 10522 10529 10527 10541 10547 10594 10591 10606 10614 10625 10630 10634 10645 10654 10669 10679 10687 10691 10703 10720 10733 10743 10752 10758 10755 10755 10760 10765 10767 10766 10772 10775 10763 10763 10758
10493 10488 10489 10492 10487 10482 10488 10485 10492 10496 10502 10504 10533 10514 10564 10566 10572 10583 10589 10597 10606 10616 10623 10641 10652 10661 10674 10688 10705 10718 10728 10739 10744 10744 10742 10744 10751 10754 10756 10757 10754 10751 10749 10746
10476 10466 10459 10467 10465 10458 10461 10466 10468 10471 10472 10487 10493 10473 10531 10537 10537 10547 10553 10573 10578 10588 10594 10614 10633 10647 10653 10674 10687 10699 10708 10722 10729 10732 10731 10732 10736 10741 10746 10743 10739 10739 10735 10732
10455 10445 10433 10437 10437 10439 10436 10444 10444 10444 10445 10455 10462 10462 10498 10511 10505 10506 10524 10536 10543 10555 10568 10589 10612 10627 10637 10647 10666 10676 10690 10701 10710 10716 10720 10721 10724 10729 10734 10728 10728 10727 10724 10720
10428 10425 10412 10412 10410 10412 10412 10415 10414 10410 10426 10425 10429 10442 10460 10468 10485 10487 10504 10515 10527 10543 10562 10580 10593 10606 10621 10629 10641 10665 10670 10681 10691 10696 10702 10708 10713 10720 10720 10717 10715 10715 10711 10708
10402 10409 10383 10391 10386 10385 10391 10388 10391 10388 10393 10397 10403 10416 10427 10435 10456 10466 10476 10496 10509 10516 10528 10554 10576 10592 10605 10617 10627 10643 10658 10667 10675 10682 10687 10694 10699 10708 10706 10705 10703 10701 10699 10695
10385 10380 10370 10368 10363 10364 10371 10366 10368 10371 10373 10377 10386 10395 10405 10411 10428 10448 10458 10471 10481 10499 10518 10548 10559 10581 10592 10599 10615 10627 10637 10656 10665 10668 10675 10681 10688 10693 10692 10692 10691 10689 10686 10684
10366 10363 10355 10350 10350 10354 10353 10350 10351 10355 10356 10359 10369 10373 10384 10394 10404 10423 10436 10449 10473 10486 10510 10521 10543 10561 10571 10589 10603 10616 10629 10643 10649 10659 10665 10671 10676 10678 10679 10679 10678 10676 10674 10673
10353 10349 10343 10338 10340 10340 10340 10341 10340 10341 10342 10345 10356 10359 10370 10375 10394 10408 10420 10441 10454 10471 10495 10522 10535 10550 10571 10585 10598 10610 10621 10630 10638 10646 10654 10659 10663 10666 10668 10666 10664 10664 10663 10661
10343 10338 10335 10332 10330 10330 10330 10327 10325 10327 10330 10334 10342 10349 10357 10370 10384 10396 10407 10429 10451 10475 10493 10501 10518 10541 10561 10583 10588 10603 10611 10617 10626 10635 10641 10648 10652 10653 10655 10656 10654 10654 10654 10652
10337 10332 10328 10325 10323 10321 10321 10318 10318 10322 10323 10328 10334 10341 10351 10360 10374 10386 10407 10425 10444 10464 10487 10510 10533 10543 10562 10580 10589 10598 10603 10608 10615 10622 10629 10637 10642 10643 10644 10645 10646 10647 10647 10645
10332 10326 10322 10320 10318 10316 10314 10312 10316 10319 10321 10329 10333 10342 10353 10357 10369 10381 10406 10423 10442 10466 10498 10503 10528 10539 10560 10578 10600 10601 10595 10597 10608 10613 10621 10626 10631 10633 10635 10638 10639 10638 10638 10638
10328 10323 10320 10317 10314 10311 10312 10309 10315 10318 10320 10324 10331 10341 10353 10360 10374 10389 10405 10428 10440 10475 10494 10514 10529 10544 10564 10582 10596 10598 10586 10594 10605 10610 10614 10617 10620 10624 10627 10628 10630 10631 10631 10630
10325 10320 10318 10316 10312 10311 10311 10312 10312 10316 10319 10326 10333 10342 10352 10361 10371 10384 10405 10426 10444 10474 10500 10521 10537 10550 10571 10589 10596 10593 10587 10599 10604 10606 10607 10611 10615 10618 10619 10621 10624 10624 10624 10624
10321 10319 10317 10314 10311 10310 10310 10311 10311 10315 10323 10327 10333 10345 10353 10363 10374 10389 10406 10426 10455 10471 10500 10527 10536 10555 10590 10592 10593 10589 10596 10600 10599 10600 10605 10607 10610 10612 10614 10616 10617 10618 10618 10617
10320 10317 10316 10314 10312 10308 10309 10313 10315 10318 10321 10331 10340 10347 10361 10367 10381 10399 10419 10437 10459 10478 10511 10535 10531 10554 10569 10585 10583 10588 10593 10596 10596 10601 10600 10602 10606 10608 10609 10611 10611 10611 10610 10610
10319 10314 10313 10312 10311 10309 10306 10312 10316 10320 10326 10332 10338 10350 10360 10371 10390 10404 10420 10441 10466 10487 10511 10521 10530 10544 10570 10572 10580 10586 10593 10593 10597 10596 10597 10599 10602 10605 10605 10605 10604 10604 10603 10604
10317 10313 10312 10311 10310 10310 10308 10311 10316 10320 10325 10330 10340 10352 10367 10381 10396 10414 10430 10449 10470 10496 10512 10518 10531 10540 10553 10565 10574 10586 10592 10594 10593 10592 10595 10596 10599 10600 10600 10599 10598 10598 10598 10600
10317 10313 10312 10310 10310 10310 10309 10311 10317 10321 10327 10332 10343 10356 10377 10392 10411 10424 10441 10462 10482 10500 10516 10526 10539 10555 10562 10567 10578 10589 10592 10590 10589 10590 10591 10593 10594 10594 10595 10594 10594 10596 10596 10597
10317 10313 10311 10310 10309 10308 10309 10312 10318 10322 10329 10338 10350 10366 10385 10406 10423 10439 10454 10471 10482 10496 10509 10528 10546 10560 10566 10575 10579 10580 10583 10587 10587 10588 10589 10589 10590 10591 10592 10592 10593 10594 10595 10596
10316 10313 10310 10310 10308 10308 10309 10315 10322 10327 10337 10342 10355 10372 10396 10415 10424 10439 10453 10463 10477 10491 10512 10531 10549 10558 10564 10570 10574 10575 10579 10584 10586 10586 10587 10588 10589 10590 10590 10590 10589 10590 10592 10595
10315 10312 10312 10311 10310 10311 10313 10318 10327 10337 10347 10353 10360 10383 10405 10419 10430 10444 10458 10473 10486 10504 10514 10538 10549 10553 10564 10568 10571 10574 10579 10581 10581 10583 10585 10586 10587 10588 10589 10588 10586 10589 10592 10595